| time (UTC) | temp F | wind direction | speed MPH | gust MPH | rain 1hr in | rain 24hr in | rain mn in | humidity % | barometer mb |
| 20260509044605 | 55 | 195 | 0.0 | 0.0 | 0.00 | 0.00 | 0.00 | 83 | 1021.3 |
| 20260509043605 | 55 | 195 | 0.0 | 0.0 | 0.00 | 0.00 | 0.00 | 83 | 1021.2 |
| 20260509043105 | 55 | 195 | 0.0 | 1.0 | 0.00 | 0.00 | 0.00 | 83 | 1021.2 |
| 20260509042605 | 55 | 195 | 0.0 | 1.0 | 0.00 | 0.00 | 0.00 | 83 | 1021.1 |
| 20260509042105 | 55 | 195 | 0.0 | 1.0 | 0.00 | 0.00 | 0.00 | 83 | 1021.1 |
| 20260509040606 | 55 | 195 | 0.0 | 0.0 | 0.00 | 0.00 | 0.00 | 83 | 1021.2 |
| 20260509040106 | 55 | 195 | 0.0 | 1.0 | 0.00 | 0.00 | 0.00 | 82 | 1021.2 |
| 20260509035606 | 55 | 195 | 0.0 | 1.0 | 0.00 | 0.00 | 0.00 | 82 | 1021.2 |
| 20260509035105 | 56 | 195 | 0.0 | 1.0 | 0.00 | 0.00 | 0.00 | 82 | 1021.2 |
| 20260509034605 | 56 | 195 | 0.0 | 1.0 | 0.00 | 0.00 | 0.00 | 82 | 1021.2 |
| 20260509034105 | 56 | 195 | 0.0 | 1.0 | 0.00 | 0.00 | 0.00 | 82 | 1021.2 |
| 20260509033105 | 56 | 195 | 0.0 | 1.0 | 0.00 | 0.00 | 0.00 | 82 | 1021.2 |
| 20260509032605 | 56 | 195 | 0.0 | 2.0 | 0.00 | 0.00 | 0.00 | 82 | 1021.2 |
| 20260509032106 | 56 | 195 | 0.0 | 3.0 | 0.00 | 0.00 | 0.00 | 82 | 1021.2 |
| 20260509031105 | 56 | 195 | 0.0 | 2.0 | 0.00 | 0.00 | 0.00 | 81 | 1021.2 |
| 20260509030605 | 56 | 195 | 0.0 | 2.0 | 0.00 | 0.00 | 0.00 | 81 | 1021.2 |
| 20260509030104 | 56 | 195 | 0.0 | 2.0 | 0.00 | 0.00 | 0.00 | 81 | 1021.2 |
| 20260509025605 | 57 | 195 | 0.0 | 1.0 | 0.00 | 0.00 | 0.00 | 81 | 1021.2 |
| 20260509024605 | 57 | 195 | 1.0 | 3.0 | 0.00 | 0.00 | 0.00 | 80 | 1021.2 |
| 20260509024105 | 57 | 195 | 1.0 | 3.0 | 0.00 | 0.00 | 0.00 | 81 | 1021.2 |
| 20260509023605 | 57 | 207 | 1.0 | 2.0 | 0.00 | 0.00 | 0.00 | 80 | 1021.3 |
| 20260509023106 | 57 | 207 | 0.0 | 2.0 | 0.00 | 0.00 | 0.00 | 80 | 1021.2 |
| 20260509022605 | 57 | 207 | 0.0 | 2.0 | 0.00 | 0.00 | 0.00 | 81 | 1021.2 |
| 20260509022105 | 57 | 210 | 0.0 | 2.0 | 0.00 | 0.00 | 0.00 | 80 | 1021.2 |
| 20260509021606 | 57 | 210 | 0.0 | 2.0 | 0.00 | 0.00 | 0.00 | 81 | 1021.3 |
| 20260509021105 | 57 | 211 | 0.0 | 2.0 | 0.00 | 0.00 | 0.00 | 81 | 1021.3 |
| 20260509020605 | 57 | 211 | 0.0 | 2.0 | 0.00 | 0.00 | 0.00 | 80 | 1021.3 |
| 20260509020106 | 57 | 211 | 0.0 | 2.0 | 0.00 | 0.00 | 0.00 | 80 | 1021.3 |
| 20260509015604 | 58 | 197 | 0.0 | 3.0 | 0.00 | 0.00 | 0.00 | 80 | 1021.3 |
| 20260509015105 | 58 | 195 | 1.0 | 3.0 | 0.00 | 0.00 | 0.00 | 79 | 1021.2 |
| 20260509014605 | 58 | 195 | 1.0 | 3.0 | 0.00 | 0.00 | 0.00 | 79 | 1021.2 |
| 20260509014105 | 58 | 195 | 1.0 | 3.0 | 0.00 | 0.00 | 0.00 | 79 | 1021.3 |
| 20260509013604 | 58 | 195 | 1.0 | 3.0 | 0.00 | 0.00 | 0.00 | 79 | 1021.3 |
| 20260509013105 | 58 | 208 | 0.0 | 3.0 | 0.00 | 0.00 | 0.00 | 79 | 1021.3 |
| 20260509012606 | 58 | 209 | 1.0 | 3.0 | 0.00 | 0.00 | 0.00 | 79 | 1021.3 |
| 20260509012104 | 58 | 195 | 2.0 | 3.0 | 0.00 | 0.00 | 0.00 | 79 | 1021.3 |
| 20260509011607 | 58 | 207 | 1.0 | 2.0 | 0.00 | 0.00 | 0.00 | 79 | 1021.3 |
| 20260509010605 | 58 | 209 | 1.0 | 3.0 | 0.00 | 0.00 | 0.00 | 79 | 1021.3 |
| 20260509010104 | 58 | 208 | 1.0 | 3.0 | 0.00 | 0.00 | 0.00 | 79 | 1021.3 |
| 20260509005105 | 58 | 211 | 1.0 | 3.0 | 0.00 | 0.00 | 0.00 | 78 | 1021.3 |
| 20260509003605 | 58 | 195 | 1.0 | 3.0 | 0.00 | 0.00 | 0.00 | 78 | 1021.3 |
| 20260509003106 | 58 | 195 | 1.0 | 3.0 | 0.00 | 0.00 | 0.00 | 78 | 1021.4 |
| 20260509002604 | 58 | 209 | 2.0 | 3.0 | 0.00 | 0.00 | 0.00 | 78 | 1021.4 |
| 20260509002106 | 58 | 210 | 1.0 | 3.0 | 0.00 | 0.00 | 0.00 | 78 | 1021.4 |
| 20260509001604 | 59 | 212 | 1.0 | 3.0 | 0.00 | 0.00 | 0.00 | 79 | 1021.5 |
| 20260509001106 | 59 | 203 | 1.0 | 3.0 | 0.00 | 0.00 | 0.00 | 79 | 1021.6 |
| 20260509000104 | 58 | 210 | 0.0 | 3.0 | 0.00 | 0.00 | 0.00 | 78 | 1021.5 |
| 20260508235606 | 58 | 197 | 1.0 | 5.0 | 0.00 | 0.00 | 0.00 | 78 | 1021.5 |
| 20260508234106 | 59 | 195 | 1.0 | 3.0 | 0.00 | 0.00 | 0.00 | 77 | 1021.7 |
| 20260508233605 | 59 | 195 | 1.0 | 5.0 | 0.00 | 0.00 | 0.00 | 77 | 1021.7 |
| 20260508233106 | 59 | 195 | 2.0 | 5.0 | 0.00 | 0.00 | 0.00 | 78 | 1021.6 |
| 20260508232604 | 59 | 197 | 1.0 | 5.0 | 0.00 | 0.00 | 0.00 | 77 | 1021.7 |
| 20260508232105 | 59 | 209 | 1.0 | 5.0 | 0.00 | 0.00 | 0.00 | 78 | 1021.7 |
| 20260508231604 | 59 | 209 | 0.0 | 5.0 | 0.00 | 0.00 | 0.00 | 78 | 1021.7 |
| 20260508231105 | 59 | 213 | 1.0 | 3.0 | 0.00 | 0.00 | 0.00 | 78 | 1021.6 |
| 20260508230604 | 58 | 213 | 0.0 | 3.0 | 0.00 | 0.00 | 0.00 | 77 | 1021.7 |
| 20260508230105 | 58 | 212 | 1.0 | 3.0 | 0.00 | 0.00 | 0.00 | 76 | 1021.7 |
| 20260508225605 | 59 | 209 | 1.0 | 3.0 | 0.00 | 0.00 | 0.00 | 77 | 1021.7 |
| 20260508225105 | 58 | 199 | 1.0 | 3.0 | 0.00 | 0.00 | 0.00 | 76 | 1021.7 |
| 20260508224104 | 58 | 209 | 1.0 | 3.0 | 0.00 | 0.00 | 0.00 | 77 | 1021.6 |
| 20260508223605 | 58 | 213 | 1.0 | 3.0 | 0.00 | 0.00 | 0.00 | 77 | 1021.6 |
| 20260508223104 | 57 | 210 | 1.0 | 3.0 | 0.00 | 0.00 | 0.00 | 76 | 1021.7 |
| 20260508222605 | 58 | 195 | 1.0 | 3.0 | 0.00 | 0.00 | 0.00 | 76 | 1021.7 |
| 20260508222105 | 58 | 210 | 1.0 | 3.0 | 0.00 | 0.00 | 0.00 | 76 | 1021.7 |
| 20260508221604 | 58 | 199 | 1.0 | 3.0 | 0.00 | 0.00 | 0.00 | 75 | 1021.7 |
| 20260508221104 | 58 | 195 | 0.0 | 3.0 | 0.00 | 0.00 | 0.00 | 74 | 1021.6 |
| 20260508220606 | 58 | 211 | 1.0 | 3.0 | 0.00 | 0.00 | 0.00 | 73 | 1021.6 |
| 20260508220104 | 59 | 211 | 1.0 | 3.0 | 0.00 | 0.00 | 0.00 | 73 | 1021.6 |
| 20260508215605 | 59 | 195 | 1.0 | 3.0 | 0.00 | 0.00 | 0.00 | 72 | 1021.5 |
| 20260508215104 | 59 | 201 | 1.0 | 3.0 | 0.00 | 0.00 | 0.00 | 72 | 1021.5 |
| 20260508214106 | 59 | 195 | 1.0 | 3.0 | 0.00 | 0.00 | 0.00 | 71 | 1021.4 |
| 20260508213605 | 60 | 232 | 1.0 | 3.0 | 0.00 | 0.00 | 0.00 | 70 | 1021.4 |
| 20260508213106 | 60 | 195 | 1.0 | 3.0 | 0.00 | 0.00 | 0.00 | 71 | 1021.4 |
| 20260508212604 | 60 | 210 | 0.0 | 3.0 | 0.00 | 0.00 | 0.00 | 70 | 1021.4 |
| 20260508212105 | 60 | 195 | 1.0 | 3.0 | 0.00 | 0.00 | 0.00 | 70 | 1021.4 |
| 20260508211604 | 60 | 200 | 1.0 | 5.0 | 0.00 | 0.00 | 0.00 | 68 | 1021.4 |
| 20260508210604 | 62 | 211 | 1.0 | 5.0 | 0.00 | 0.00 | 0.00 | 68 | 1021.3 |
| 20260508210104 | 62 | 195 | 2.0 | 5.0 | 0.00 | 0.00 | 0.00 | 68 | 1021.1 |
| 20260508205604 | 62 | 206 | 1.0 | 3.0 | 0.00 | 0.00 | 0.00 | 69 | 1021.2 |
| 20260508204605 | 61 | 212 | 1.0 | 5.0 | 0.00 | 0.00 | 0.00 | 69 | 1021.0 |
| 20260508204104 | 61 | 214 | 1.0 | 6.0 | 0.00 | 0.00 | 0.00 | 69 | 1020.9 |
| 20260508203104 | 61 | 195 | 2.0 | 6.0 | 0.00 | 0.00 | 0.00 | 70 | 1020.8 |
| 20260508202604 | 60 | 206 | 2.0 | 7.0 | 0.00 | 0.00 | 0.00 | 70 | 1020.9 |
| 20260508202104 | 60 | 210 | 2.0 | 7.0 | 0.00 | 0.00 | 0.00 | 69 | 1020.8 |
| 20260508201604 | 60 | 215 | 1.0 | 5.0 | 0.00 | 0.00 | 0.00 | 70 | 1020.8 |
| 20260508201104 | 60 | 223 | 1.0 | 3.0 | 0.00 | 0.00 | 0.00 | 70 | 1020.7 |
| 20260508200604 | 60 | 214 | 1.0 | 3.0 | 0.00 | 0.00 | 0.00 | 70 | 1020.7 |
| 20260508200104 | 60 | 222 | 1.0 | 5.0 | 0.00 | 0.00 | 0.00 | 69 | 1020.8 |
| 20260508195604 | 60 | 195 | 2.0 | 5.0 | 0.00 | 0.00 | 0.00 | 69 | 1020.7 |
| 20260508195104 | 60 | 211 | 1.0 | 8.0 | 0.00 | 0.00 | 0.00 | 68 | 1020.7 |
| 20260508194604 | 60 | 206 | 2.0 | 8.0 | 0.00 | 0.00 | 0.00 | 67 | 1020.6 |
| 20260508194104 | 61 | 195 | 1.0 | 6.0 | 0.00 | 0.00 | 0.00 | 69 | 1020.5 |
| 20260508193604 | 61 | 195 | 2.0 | 6.0 | 0.00 | 0.00 | 0.00 | 68 | 1020.5 |
| 20260508193105 | 61 | 195 | 1.0 | 6.0 | 0.00 | 0.00 | 0.00 | 68 | 1020.5 |
| 20260508192605 | 61 | 196 | 1.0 | 6.0 | 0.00 | 0.00 | 0.00 | 68 | 1020.4 |
| 20260508191604 | 61 | 195 | 1.0 | 6.0 | 0.00 | 0.00 | 0.00 | 71 | 1020.5 |
| 20260508191104 | 60 | 195 | 2.0 | 6.0 | 0.00 | 0.00 | 0.00 | 70 | 1020.3 |
| 20260508190604 | 60 | 214 | 2.0 | 6.0 | 0.00 | 0.00 | 0.00 | 70 | 1020.4 |
| 20260508190105 | 60 | 197 | 1.0 | 6.0 | 0.00 | 0.00 | 0.00 | 70 | 1020.3 |
| 20260508185605 | 59 | 209 | 1.0 | 5.0 | 0.00 | 0.00 | 0.00 | 71 | 1020.2 |
| 20260508185104 | 59 | 213 | 1.0 | 5.0 | 0.00 | 0.00 | 0.00 | 71 | 1020.3 |
| 20260508184604 | 59 | 195 | 1.0 | 5.0 | 0.00 | 0.00 | 0.00 | 73 | 1020.3 |
| 20260508183604 | 58 | 195 | 1.0 | 5.0 | 0.00 | 0.00 | 0.00 | 72 | 1020.3 |
| 20260508182105 | 57 | 195 | 1.0 | 3.0 | 0.00 | 0.00 | 0.00 | 72 | 1020.2 |
| 20260508181604 | 57 | 195 | 1.0 | 3.0 | 0.00 | 0.00 | 0.00 | 72 | 1020.3 |
| 20260508180605 | 58 | 195 | 0.0 | 3.0 | 0.00 | 0.00 | 0.00 | 71 | 1020.2 |
| 20260508180104 | 57 | 215 | 1.0 | 3.0 | 0.00 | 0.00 | 0.00 | 71 | 1020.1 |
| 20260508175605 | 57 | 223 | 1.0 | 3.0 | 0.00 | 0.00 | 0.00 | 72 | 1020.1 |
| 20260508175105 | 57 | 195 | 2.0 | 3.0 | 0.00 | 0.00 | 0.00 | 72 | 1020.1 |
| 20260508174604 | 57 | 195 | 1.0 | 3.0 | 0.00 | 0.00 | 0.00 | 72 | 1020.1 |
| 20260508174105 | 57 | 213 | 0.0 | 3.0 | 0.00 | 0.00 | 0.00 | 72 | 1019.9 |
| 20260508173604 | 57 | 213 | 0.0 | 5.0 | 0.00 | 0.00 | 0.00 | 73 | 1020.0 |
| 20260508173104 | 56 | 213 | 1.0 | 5.0 | 0.00 | 0.00 | 0.00 | 73 | 1020.0 |
| 20260508172604 | 56 | 210 | 1.0 | 3.0 | 0.00 | 0.00 | 0.00 | 73 | 1019.9 |
| 20260508172104 | 56 | 208 | 0.0 | 3.0 | 0.00 | 0.00 | 0.00 | 72 | 1019.9 |
| 20260508171603 | 56 | 202 | 1.0 | 5.0 | 0.00 | 0.00 | 0.00 | 72 | 1019.8 |
| 20260508170105 | 56 | 212 | 0.0 | 3.0 | 0.00 | 0.00 | 0.00 | 71 | 1019.7 |
| 20260508165604 | 56 | 209 | 0.0 | 3.0 | 0.00 | 0.00 | 0.00 | 71 | 1019.7 |
| 20260508165104 | 56 | 212 | 0.0 | 3.0 | 0.00 | 0.00 | 0.00 | 72 | 1019.6 |
| 20260508164606 | 56 | 212 | 1.0 | 3.0 | 0.00 | 0.00 | 0.00 | 72 | 1019.6 |
| 20260508164105 | 56 | 223 | 1.0 | 3.0 | 0.00 | 0.00 | 0.00 | 73 | 1019.5 |
| 20260508163604 | 56 | 197 | 2.0 | 3.0 | 0.00 | 0.00 | 0.00 | 75 | 1019.5 |
| 20260508163104 | 55 | 211 | 0.0 | 2.0 | 0.00 | 0.00 | 0.00 | 74 | 1019.4 |
| 20260508162604 | 54 | 211 | 1.0 | 3.0 | 0.00 | 0.00 | 0.00 | 74 | 1019.4 |
| 20260508162105 | 54 | 195 | 1.0 | 3.0 | 0.00 | 0.00 | 0.00 | 74 | 1019.5 |
| 20260508161605 | 55 | 196 | 0.0 | 3.0 | 0.00 | 0.00 | 0.00 | 75 | 1019.4 |
| 20260508161106 | 54 | 220 | 0.0 | 1.0 | 0.00 | 0.00 | 0.00 | 76 | 1019.3 |
| 20260508160604 | 54 | 219 | 0.0 | 1.0 | 0.00 | 0.00 | 0.00 | 76 | 1019.3 |
| 20260508160105 | 54 | 219 | 0.0 | 3.0 | 0.00 | 0.00 | 0.00 | 76 | 1019.3 |
| 20260508155604 | 54 | 219 | 0.0 | 3.0 | 0.00 | 0.00 | 0.00 | 76 | 1019.2 |
| 20260508155104 | 54 | 228 | 1.0 | 3.0 | 0.00 | 0.00 | 0.00 | 76 | 1019.2 |
| 20260508154604 | 54 | 195 | 1.0 | 3.0 | 0.00 | 0.00 | 0.00 | 76 | 1019.3 |
| 20260508154104 | 53 | 195 | 0.0 | 3.0 | 0.00 | 0.00 | 0.00 | 76 | 1019.3 |
| 20260508153605 | 53 | 197 | 0.0 | 5.0 | 0.00 | 0.00 | 0.00 | 76 | 1019.2 |
| 20260508152604 | 53 | 215 | 0.0 | 3.0 | 0.00 | 0.00 | 0.00 | 76 | 1019.2 |
| 20260508152104 | 53 | 210 | 1.0 | 3.0 | 0.00 | 0.00 | 0.00 | 76 | 1019.0 |
| 20260508151605 | 53 | 195 | 0.0 | 3.0 | 0.00 | 0.00 | 0.00 | 77 | 1019.0 |
| 20260508151104 | 53 | 209 | 0.0 | 2.0 | 0.00 | 0.00 | 0.00 | 78 | 1019.0 |
| 20260508150104 | 53 | 209 | 0.0 | 1.0 | 0.00 | 0.00 | 0.00 | 79 | 1018.6 |
| 20260508145604 | 52 | 209 | 0.0 | 1.0 | 0.00 | 0.00 | 0.00 | 79 | 1018.5 |
| 20260508145104 | 52 | 209 | 0.0 | 2.0 | 0.00 | 0.00 | 0.00 | 78 | 1018.3 |
| 20260508144604 | 52 | 209 | 0.0 | 2.0 | 0.00 | 0.00 | 0.00 | 78 | 1018.3 |
| 20260508144105 | 52 | 209 | 0.0 | 2.0 | 0.00 | 0.00 | 0.00 | 78 | 1018.3 |
| 20260508143605 | 52 | 209 | 0.0 | 1.0 | 0.00 | 0.00 | 0.00 | 78 | 1018.3 |
| 20260508143105 | 51 | 209 | 0.0 | 0.0 | 0.00 | 0.00 | 0.00 | 78 | 1018.3 |
| 20260508142604 | 51 | 209 | 0.0 | 2.0 | 0.00 | 0.00 | 0.00 | 78 | 1018.3 |
| 20260508142104 | 51 | 209 | 0.0 | 2.0 | 0.00 | 0.00 | 0.00 | 78 | 1018.1 |
| 20260508141103 | 51 | 209 | 0.0 | 0.0 | 0.00 | 0.00 | 0.00 | 78 | 1018.1 |
| 20260508140605 | 51 | 209 | 0.0 | 0.0 | 0.00 | 0.00 | 0.00 | 78 | 1018.1 |
| 20260508140105 | 51 | 209 | 0.0 | 2.0 | 0.00 | 0.00 | 0.00 | 78 | 1017.9 |
| 20260508135605 | 51 | 209 | 0.0 | 3.0 | 0.00 | 0.00 | 0.00 | 78 | 1018.0 |
| 20260508135104 | 51 | 209 | 0.0 | 3.0 | 0.00 | 0.00 | 0.00 | 78 | 1017.9 |
| 20260508134604 | 51 | 195 | 0.0 | 2.0 | 0.00 | 0.00 | 0.00 | 78 | 1017.8 |
| 20260508134104 | 51 | 209 | 0.0 | 2.0 | 0.00 | 0.00 | 0.00 | 78 | 1018.0 |
| 20260508133604 | 51 | 209 | 0.0 | 1.0 | 0.00 | 0.00 | 0.00 | 78 | 1018.1 |
| 20260508133104 | 51 | 209 | 0.0 | 1.0 | 0.00 | 0.00 | 0.00 | 78 | 1018.1 |
| 20260508132604 | 51 | 230 | 0.0 | 2.0 | 0.00 | 0.00 | 0.00 | 78 | 1018.2 |
| 20260508131604 | 50 | 209 | 0.0 | 3.0 | 0.00 | 0.00 | 0.00 | 78 | 1018.2 |
| 20260508131104 | 50 | 212 | 0.0 | 3.0 | 0.00 | 0.00 | 0.00 | 78 | 1018.2 |
| 20260508130604 | 50 | 196 | 1.0 | 3.0 | 0.00 | 0.00 | 0.00 | 79 | 1018.1 |
| 20260508130104 | 50 | 195 | 0.0 | 3.0 | 0.00 | 0.00 | 0.00 | 79 | 1018.1 |
| 20260508125603 | 50 | 195 | 0.0 | 3.0 | 0.00 | 0.00 | 0.00 | 79 | 1018.1 |
| 20260508125104 | 50 | 195 | 0.0 | 2.0 | 0.00 | 0.00 | 0.00 | 79 | 1018.0 |
| 20260508124104 | 50 | 197 | 0.0 | 2.0 | 0.00 | 0.00 | 0.00 | 79 | 1017.9 |
| 20260508123605 | 50 | 199 | 0.0 | 2.0 | 0.00 | 0.00 | 0.00 | 79 | 1018.0 |
| 20260508123103 | 50 | 197 | 0.0 | 3.0 | 0.00 | 0.00 | 0.00 | 80 | 1018.0 |
| 20260508122605 | 50 | 196 | 0.0 | 3.0 | 0.00 | 0.00 | 0.00 | 80 | 1018.0 |
| 20260508122104 | 50 | 197 | 0.0 | 1.0 | 0.00 | 0.00 | 0.00 | 80 | 1018.0 |
| 20260508121603 | 50 | 198 | 0.0 | 3.0 | 0.00 | 0.00 | 0.00 | 80 | 1018.0 |
| 20260508121105 | 50 | 199 | 0.0 | 3.0 | 0.00 | 0.00 | 0.00 | 80 | 1018.0 |
| 20260508120604 | 50 | 280 | 0.0 | 2.0 | 0.00 | 0.00 | 0.00 | 80 | 1018.0 |
| 20260508120104 | 50 | 279 | 0.0 | 2.0 | 0.00 | 0.00 | 0.00 | 81 | 1018.0 |
| 20260508115604 | 50 | 209 | 0.0 | 2.0 | 0.00 | 0.00 | 0.00 | 81 | 1017.9 |
| 20260508115104 | 50 | 280 | 0.0 | 1.0 | 0.00 | 0.00 | 0.00 | 81 | 1017.9 |
| 20260508114604 | 50 | 280 | 0.0 | 2.0 | 0.00 | 0.00 | 0.00 | 81 | 1017.8 |
| 20260508114104 | 50 | 209 | 0.0 | 2.0 | 0.00 | 0.00 | 0.00 | 82 | 1017.7 |
| 20260508113604 | 49 | 209 | 0.0 | 1.0 | 0.00 | 0.00 | 0.00 | 82 | 1017.8 |
| 20260508112604 | 49 | 209 | 0.0 | 1.0 | 0.00 | 0.00 | 0.00 | 82 | 1017.7 |
| 20260508112104 | 49 | 209 | 0.0 | 2.0 | 0.00 | 0.00 | 0.00 | 83 | 1017.7 |
| 20260508111603 | 49 | 209 | 0.0 | 2.0 | 0.00 | 0.00 | 0.00 | 83 | 1017.7 |
| 20260508111104 | 49 | 209 | 0.0 | 2.0 | 0.00 | 0.00 | 0.00 | 84 | 1017.6 |
| 20260508110604 | 49 | 291 | 0.0 | 2.0 | 0.00 | 0.00 | 0.00 | 84 | 1017.5 |
| 20260508105604 | 49 | 213 | 0.0 | 3.0 | 0.00 | 0.00 | 0.00 | 85 | 1017.5 |
| 20260508105104 | 49 | 212 | 0.0 | 3.0 | 0.00 | 0.00 | 0.00 | 85 | 1017.5 |
| 20260508104603 | 48 | 213 | 0.0 | 3.0 | 0.00 | 0.00 | 0.00 | 86 | 1017.4 |
| 20260508104103 | 48 | 235 | 0.0 | 3.0 | 0.00 | 0.00 | 0.00 | 86 | 1017.4 |
| 20260508103605 | 48 | 224 | 0.0 | 2.0 | 0.00 | 0.00 | 0.00 | 86 | 1017.4 |
| 20260508103104 | 48 | 224 | 0.0 | 1.0 | 0.00 | 0.00 | 0.00 | 86 | 1017.4 |
| 20260508102604 | 48 | 219 | 0.0 | 1.0 | 0.00 | 0.00 | 0.00 | 86 | 1017.3 |
| 20260508101604 | 48 | 221 | 0.0 | 2.0 | 0.00 | 0.00 | 0.00 | 86 | 1017.2 |
| 20260508100105 | 47 | 220 | 0.0 | 1.0 | 0.00 | 0.00 | 0.00 | 86 | 1017.1 |
| 20260508095604 | 47 | 221 | 0.0 | 1.0 | 0.00 | 0.00 | 0.00 | 86 | 1017.1 |
| 20260508094604 | 46 | 218 | 0.0 | 0.0 | 0.00 | 0.00 | 0.00 | 86 | 1016.9 |
| 20260508094103 | 46 | 216 | 0.0 | 1.0 | 0.00 | 0.00 | 0.00 | 86 | 1016.9 |
| 20260508093603 | 46 | 216 | 0.0 | 1.0 | 0.00 | 0.00 | 0.00 | 86 | 1016.7 |
| 20260508093104 | 46 | 220 | 0.0 | 1.0 | 0.00 | 0.00 | 0.00 | 86 | 1016.8 |
| 20260508092605 | 46 | 221 | 0.0 | 1.0 | 0.00 | 0.00 | 0.00 | 86 | 1016.7 |
| 20260508092108 | 46 | 219 | 0.0 | 0.0 | 0.00 | 0.00 | 0.00 | 85 | 1016.7 |
| 20260508091603 | 45 | 223 | 0.0 | 0.0 | 0.00 | 0.00 | 0.00 | 85 | 1016.7 |
| 20260508091106 | 45 | 220 | 0.0 | 0.0 | 0.00 | 0.00 | 0.00 | 85 | 1016.7 |
| 20260508090606 | 45 | 218 | 0.0 | 0.0 | 0.00 | 0.00 | 0.00 | 85 | 1016.6 |
| 20260508090106 | 45 | 217 | 0.0 | 0.0 | 0.00 | 0.00 | 0.00 | 85 | 1016.6 |
| 20260508085605 | 45 | 216 | 0.0 | 0.0 | 0.00 | 0.00 | 0.00 | 84 | 1016.6 |
| 20260508085105 | 45 | 221 | 0.0 | 0.0 | 0.00 | 0.00 | 0.00 | 84 | 1016.6 |
| 20260508084606 | 45 | 216 | 0.0 | 0.0 | 0.00 | 0.00 | 0.00 | 84 | 1016.7 |
| 20260508084106 | 45 | 216 | 0.0 | 0.0 | 0.00 | 0.00 | 0.00 | 84 | 1016.7 |
| 20260508083107 | 45 | 218 | 0.0 | 0.0 | 0.00 | 0.00 | 0.00 | 83 | 1016.6 |
| 20260508082605 | 45 | 218 | 0.0 | 0.0 | 0.00 | 0.00 | 0.00 | 83 | 1016.6 |
| 20260508082106 | 45 | 216 | 0.0 | 0.0 | 0.00 | 0.00 | 0.00 | 83 | 1016.6 |
| 20260508081105 | 45 | 220 | 0.0 | 0.0 | 0.00 | 0.00 | 0.00 | 83 | 1016.6 |
| 20260508080105 | 45 | 217 | 0.0 | 0.0 | 0.00 | 0.00 | 0.00 | 82 | 1016.5 |
| 20260508075607 | 45 | 216 | 0.0 | 0.0 | 0.00 | 0.00 | 0.00 | 82 | 1016.4 |
| 20260508075105 | 45 | 216 | 0.0 | 0.0 | 0.00 | 0.00 | 0.00 | 82 | 1016.5 |
| 20260508074105 | 45 | 224 | 0.0 | 0.0 | 0.00 | 0.00 | 0.00 | 82 | 1016.4 |
| 20260508073606 | 45 | 218 | 0.0 | 0.0 | 0.00 | 0.00 | 0.00 | 82 | 1016.4 |
| 20260508073105 | 45 | 221 | 0.0 | 0.0 | 0.00 | 0.00 | 0.00 | 82 | 1016.4 |
| 20260508072605 | 46 | 219 | 0.0 | 0.0 | 0.00 | 0.00 | 0.00 | 81 | 1016.4 |
| 20260508072106 | 46 | 220 | 0.0 | 0.0 | 0.00 | 0.00 | 0.00 | 81 | 1016.5 |
| 20260508071605 | 46 | 218 | 0.0 | 0.0 | 0.00 | 0.00 | 0.00 | 81 | 1016.5 |
| 20260508071110 | 46 | 217 | 0.0 | 0.0 | 0.00 | 0.00 | 0.00 | 81 | 1016.5 |
| 20260508070605 | 46 | 217 | 0.0 | 0.0 | 0.00 | 0.00 | 0.00 | 81 | 1016.6 |
| 20260508070106 | 46 | 218 | 0.0 | 0.0 | 0.00 | 0.00 | 0.00 | 81 | 1016.5 |
| 20260508065106 | 46 | 222 | 0.0 | 0.0 | 0.00 | 0.00 | 0.00 | 80 | 1016.5 |
| 20260508064606 | 46 | 223 | 0.0 | 0.0 | 0.00 | 0.00 | 0.00 | 80 | 1016.5 |
| 20260508063605 | 46 | 220 | 0.0 | 0.0 | 0.00 | 0.00 | 0.00 | 79 | 1016.5 |
| 20260508063106 | 46 | 218 | 0.0 | 0.0 | 0.00 | 0.00 | 0.00 | 79 | 1016.5 |
| 20260508062606 | 46 | 217 | 0.0 | 0.0 | 0.00 | 0.00 | 0.00 | 79 | 1016.5 |
| 20260508062106 | 47 | 216 | 0.0 | 0.0 | 0.00 | 0.00 | 0.00 | 79 | 1016.5 |
| 20260508061605 | 47 | 216 | 0.0 | 0.0 | 0.00 | 0.00 | 0.00 | 78 | 1016.5 |
| 20260508061105 | 47 | 216 | 0.0 | 0.0 | 0.00 | 0.00 | 0.00 | 77 | 1016.5 |
| 20260508060106 | 47 | 216 | 0.0 | 0.0 | 0.00 | 0.00 | 0.00 | 77 | 1016.5 |
| 20260508055105 | 47 | 216 | 0.0 | 0.0 | 0.00 | 0.00 | 0.00 | 77 | 1016.4 |
| 20260508054605 | 47 | 216 | 0.0 | 0.0 | 0.00 | 0.00 | 0.00 | 77 | 1016.5 |
| 20260508053605 | 47 | 216 | 0.0 | 0.0 | 0.00 | 0.00 | 0.00 | 77 | 1016.6 |
| 20260508052605 | 48 | 216 | 0.0 | 0.0 | 0.00 | 0.00 | 0.00 | 77 | 1016.6 |
| 20260508052105 | 48 | 216 | 0.0 | 0.0 | 0.00 | 0.00 | 0.00 | 77 | 1016.7 |
| 20260508051106 | 48 | 216 | 0.0 | 0.0 | 0.00 | 0.00 | 0.00 | 77 | 1016.7 |
| 20260508045606 | 49 | 216 | 0.0 | 0.0 | 0.00 | 0.00 | 0.00 | 76 | 1016.7 |
| 20260508045105 | 49 | 216 | 0.0 | 0.0 | 0.00 | 0.00 | 0.00 | 76 | 1016.7 |